Location: Saint-Palais-sur-Mer
(45.6429°N, 1.0859°W)
Time: 23:35:11
(UTC+01:00)

Vanguard 1 - Pass Details

Date: 15 February 2026
Orbit: 653 x 3818 km, 34.2° (Epoch: 12 March)

Event Time Altitude Azimuth Distance (km) Brightness Sun altitude
Rises 00:24:46 0° 281° (W) 7,568 14.8 -55.2°
Reaches altitude 10° 00:31:21 10° 269° (W) 6,793 14.4 -55.6°
Enters shadow 00:42:59 23° 240° (WSW) 5,868 13.8 -56.3°
